Flag for U.S.A. Weather past 2 weeks in Albuquerque, New Mexico, U.S.A.

Now
53 °F

Passing clouds.


Feels Like: 52 °F
Forecast: 30 / 58 °F
Wind: 5 mph from Northeast

Location: Albuquerque International Airport

Current Time: Jan 26, 2015 at 6:19:36 PM

Latest Report: Jan 26, 2015 at 5:52 PM


Visibility: 10 mi

Pressure: 30.27 "Hg

Humidity: 35%

Dew point: 26 °F

Location of AlbuquerqueLocation

Historic Weather in Albuquerque — Graph

°F

Albuquerque temperature yesterday

Maximum temperature yesterday: 54 °F (at 4:52 PM)
Minimum temperature yesterday: 27 °F (at 2:52 AM)
Average temperature yesterday: 40 °F

Past Weeks' High & Low Weather Summary

 TemperatureHumidityPressure
High58 °F (Jan 19, 2:52 PM)96% (Jan 13, 5:52 AM)30.50 "Hg (Jan 13, 5:52 AM)
Low20 °F (Jan 23, 4:52 AM)23% (Jan 17, 3:52 PM)29.93 "Hg (Jan 21, 1:52 PM)
Average38 °F62%30.24 "Hg
* Reported Jan 11 4:52 PM — Jan 26 4:52 PM, Albuquerque, Weather by CustomWeather, © 2014

Note: Actual official high and low records may vary slightly from our data, if they occured in-between our weather recording intervals... More about our weather records

Advertising

Albuquerque weather history for previous 24 hours

 ConditionsComfort  
Time TempWeatherWind HumidityBarometerVisibility
4:52 PM
Jan 26
56 °FScattered clouds.No wind32%30.27 "Hg10 mi
3:52 PM56 °FScattered clouds.No wind32%30.25 "Hg10 mi
2:52 PM56 °FPartly sunny.3 mph32%30.25 "Hg10 mi
1:52 PM52 °FPartly sunny.5 mph35%30.29 "Hg10 mi
12:52 PM50 °FScattered clouds.5 mph38%30.30 "Hg10 mi
11:52 AM46 °FPassing clouds.No wind46%30.35 "Hg10 mi
10:52 AM42 °FPassing clouds.No wind53%30.37 "Hg10 mi
9:52 AM38 °FPassing clouds.No wind63%30.37 "Hg10 mi
8:52 AM35 °FPassing clouds.5 mph67%30.38 "Hg10 mi
7:52 AM34 °FPassing clouds.5 mph67%30.37 "Hg10 mi
6:52 AM32 °FPassing clouds.8 mph69%30.35 "Hg10 mi
5:52 AM34 °FClear.10 mph67%30.32 "Hg10 mi
4:52 AM33 °FClear.13 mph70%30.30 "Hg10 mi
3:52 AM36 °FClear.9 mph62%30.30 "Hg10 mi
2:52 AM35 °FClear.8 mph67%30.31 "Hg10 mi
1:52 AM33 °FClear.6 mph70%30.32 "Hg10 mi
12:52 AM34 °FClear.No wind64%30.31 "Hg10 mi
11:52 PM
Jan 25
32 °FClear.5 mph69%30.33 "Hg10 mi
10:52 PM39 °FClear.No wind55%30.32 "Hg10 mi
9:52 PM43 °FClear.7 mph47%30.29 "Hg10 mi
8:52 PM42 °FClear.No wind49%30.28 "Hg10 mi
7:52 PM44 °FClear.7 mph47%30.28 "Hg10 mi
6:52 PM48 °FPassing clouds.7 mph41%30.27 "Hg10 mi
Weather by CustomWeather, © 2014

See weather overviewHow to use our weather pages